THOR ABLESTAR R/B, 953

Orbit data source: Space-Track

THOR ABLESTAR R/B, 953 is space debris in LEO originally from a launch on Sun, 13 Dec 1964 UTC launched from the Air Force Western Test Range (AFWTR). Debris objects in space refer to the collection of defunct objects orbiting the Earth. Examples of debris include non-operational satellites, rocket bodies, and fragments generated from explosions, collisions, or faulty payload assembly.

Loading next visibility...
Identifier
953, 1964-083A
Orbit
LEO
Country
Flag of USUS
Related business
Manufacturer
Aerojet
Mission
Spacecraft
Bus & Motor
ABLESTAR, Unknown motor
Mass
~600 kg wet, 600 kg dry
Launch date (UTC)
1964-12-13 (62 years ago)
Launch vehicle
Unknown
Launch site
Air Force Western Test Range (AFWTR)
Object type
Payload
Rocket body
Debris
Shape & HBR
Unknown
Radar Cross Section
Large (>1 m²)

Expand to show TLE details & history
Last TLE update: 2 days ago

TLE from 2 days ago
0 THOR ABLESTAR R/B
1   953U 64083A   26171.46345410  .00000026  00000-0  21449-4 0  9994
2   953  90.0331 193.1402 0033545  67.1398  62.2917 13.58838423 49026
Epoch: 2026-06-20T11:07Z
TLE epoch observation values (Epoch: 2026-06-20T11:07:22.434Z)
Latitude
50.32183°
Longitude
-62.34129°
Altitude
1,036.513 km
Speed
7.344 km/s
True Right ascension
00h 52m 43s
True Declination
50° 09' 33"
Sunlit
Object was in daylight at epoch
Visualization orbit readout
Latitude
Unknown
Longitude
Unknown
Altitude
Unknown
Speed
Unknown
Apparent Right ascension
Unknown
Apparent Declination
Unknown
Sunlit
N/A
Visualization observer readout
Local Sidereal Time
01:06:08
Azimuth
Unknown
Elevation
Unknown
Doppler factor
Unknown
Orbital elements
Apogee altitude
1,061.827 km
Perigee altitude
1,012.079 km
Semi-major axis
7,415.09 km
Eccentricity
0.00335
Inclination
90.0331°
RAAN
193.1402°
Arg. of periapsis
67.1398°
True anomaly
62.63268°
Mean anomaly
62.2917°
Eccentric anomaly
62.46212°
Mean motion
3.39914 °/min
Orbital period
105.91 mins
BSTAR
0.000021449
Loading maneuver chart data...
Computing Atmospheric mass density...

Documentation

Showing up to 5 results
|